Burbank, CA

6:02 AM PST on December 11, 2016 (GMT -0800)
Burbank-Glendale-Pasadena

Weather History for KBUR - December, 2012

Change the Weather History Date:

Sunday, December 2, 2012

  Actual Average Record
Temperature  
Mean Temperature 61 °F 55 °F  
Max Temperature 63 °F 68 °F 86 °F (1940)
Min Temperature 58 °F 42 °F 33 °F (1945)
Degree Days  
Heating Degree Days 4 10  
Month to date heating degree days 6 20  
Since 1 July heating degree days 131 248  
Cooling Degree Days 0 0  
Month to date cooling degree days 0 0  
Year to date cooling degree days 1672 1245  
Growing Degree Days 10 (Base 50)    
Moisture  
Dew Point 56 °F    
Average Humidity 86    
Maximum Humidity 93    
Minimum Humidity 78    
Precipitation  
Precipitation 0.14 in 0.05 in 1.30 in (1961)
Month to date precipitation 0.18 0.10  
Year to date precipitation 6.55 15.01  
Since 1 July precipitation 1.07  
Sea Level Pressure  
Sea Level Pressure 30.09 in    
Wind  
Wind Speed 5 mph (SE)    
Max Wind Speed 10 mph    
Max Gust Speed 15 mph    
Visibility 7 miles    
Events Rain    
T = Trace of Precipitation, MM = Missing Value Source: NWS Daily Summary

Daily Weather History Graph

Daily Weather History Graph

Search for Another Location

Airport or City:

Trip Planner

Search our weather history database for the weather conditions in past years. The results will help you decide how hot, cold, wet, or windy it might be!

Date:

Astronomy

Dec. 02, 2012 Rise Set
Actual Time 6:42 AM PST 4:43 PM PST
Civil Twilight 6:15 AM PST 5:11 PM PST
Nautical Twilight 5:44 AM PST 5:42 PM PST
Astronomical Twilight 5:13 AM PST 6:12 PM PST
Moon 8:31 PM PST (12/2) 9:38 AM PST (12/2)
Length of Visible Light 10h 56m
Length of Day
10h 01m
Waning Gibbous, 85% of the Moon is Illuminated
Dec 2
Waning Gibbous
Dec 6
Last Quarter
Dec 13
New
Dec 19
First Quarter
Dec 28
Full

Hourly Weather History & Observations

Time (PST) Temp. Dew Point Humidity Pressure Visibility Wind Dir Wind Speed Gust Speed Precip Events Conditions
12:00 AM 60.8 °F 57.2 °F 88% 30.11 in 10.0 mi South 3.5 mph - N/A   Overcast
12:53 AM 60.1 °F 57.0 °F 90% 30.08 in 10.0 mi SSE 4.6 mph - N/A   Overcast
1:53 AM 59.0 °F 55.9 °F 90% 30.07 in 10.0 mi SSE 3.5 mph - N/A   Overcast
2:53 AM 59.0 °F 55.9 °F 90% 30.08 in 10.0 mi Calm Calm - N/A   Overcast
3:53 AM 59.0 °F 55.9 °F 90% 30.08 in 5.0 mi SW 3.5 mph - N/A   Overcast
4:34 AM 57.2 °F 55.4 °F 94% 30.10 in 10.0 mi Calm Calm - N/A   Overcast
4:53 AM 59.0 °F 55.9 °F 90% 30.07 in 10.0 mi Calm Calm - N/A   Overcast
5:53 AM 59.0 °F 55.9 °F 90% 30.09 in 7.0 mi Calm Calm - N/A   Overcast
6:33 AM 57.2 °F 55.4 °F 94% 30.12 in 10.0 mi Calm Calm - N/A   Overcast
6:53 AM 59.0 °F 55.9 °F 90% 30.09 in 6.0 mi SSE 3.5 mph - N/A   Overcast
7:33 AM 59.0 °F 55.4 °F 88% 30.13 in 10.0 mi Calm Calm - N/A   Overcast
7:43 AM 59.0 °F 55.4 °F 88% 30.12 in 10.0 mi SE 4.6 mph - N/A   Overcast
7:53 AM 59.0 °F 55.0 °F 87% 30.09 in 10.0 mi ESE 4.6 mph - N/A   Overcast
8:53 AM 60.1 °F 55.9 °F 86% 30.12 in 10.0 mi South 4.6 mph - N/A   Mostly Cloudy
9:51 AM 60.8 °F 55.4 °F 82% 30.14 in 10.0 mi ESE 6.9 mph - N/A   Overcast
9:53 AM 61.0 °F 55.9 °F 83% 30.12 in 10.0 mi ESE 6.9 mph - N/A   Overcast
10:53 AM 63.0 °F 55.0 °F 75% 30.11 in 10.0 mi ESE 6.9 mph - 0.01 in   Overcast
11:53 AM 62.1 °F 55.9 °F 80% 30.09 in 2.0 mi SSE 9.2 mph - 0.00 in Rain Light Rain
12:00 PM 60.8 °F 55.4 °F 82% 30.11 in 2.0 mi SSE 8.1 mph - 0.00 in Rain Light Rain
12:53 PM 61.0 °F 57.9 °F 90% 30.07 in 6.0 mi ESE 8.1 mph - 0.02 in   Overcast
1:53 PM 61.0 °F 57.0 °F 87% 30.05 in 4.0 mi South 4.6 mph - 0.00 in Rain Light Rain
2:53 PM 61.0 °F 57.0 °F 87% 30.06 in 10.0 mi South 3.5 mph - 0.01 in   Overcast
3:53 PM 63.0 °F 57.0 °F 81% 30.06 in 10.0 mi East 4.6 mph - N/A   Scattered Clouds
4:53 PM 62.1 °F 57.0 °F 84% 30.06 in 10.0 mi SSE 5.8 mph - N/A   Mostly Cloudy
5:53 PM 61.0 °F 57.0 °F 87% 30.06 in 10.0 mi SE 4.6 mph - N/A   Overcast
6:53 PM 61.0 °F 55.9 °F 83% 30.07 in 10.0 mi ESE 4.6 mph - 0.00 in   Overcast
7:53 PM 61.0 °F 55.9 °F 83% 30.07 in 10.0 mi SE 5.8 mph - N/A   Overcast
8:53 PM 59.0 °F 57.0 °F 93% 30.07 in 2.0 mi SE 5.8 mph - 0.00 in Rain Light Rain
9:39 PM 59.0 °F 57.2 °F 94% 30.11 in 2.0 mi SE 4.6 mph - 0.03 in Rain Light Rain
9:53 PM 59.0 °F 57.0 °F 93% 30.08 in 2.0 mi ESE 4.6 mph - 0.04 in Rain Light Rain
10:09 PM 59.0 °F 57.2 °F 94% 30.10 in 2.5 mi SE 5.8 mph - 0.01 in Rain Light Rain
10:30 PM 57.2 °F 57.2 °F 100% 30.10 in 2.5 mi SE 6.9 mph - 0.02 in Rain Light Rain
10:38 PM 57.2 °F 55.4 °F 94% 30.10 in 2.5 mi ESE 5.8 mph - 0.03 in Rain Light Rain
10:53 PM 57.9 °F 55.9 °F 93% 30.08 in 2.0 mi ESE 8.1 mph - 0.04 in Rain Light Rain
11:31 PM 57.2 °F 57.2 °F 100% 30.10 in 3.0 mi ESE 5.8 mph - 0.01 in Rain Light Rain
11:53 PM 57.9 °F 57.0 °F 97% 30.07 in 2.0 mi ESE 6.9 mph - 0.02 in Rain Light Rain